Simultaneous Nadir Overpasses (SNOs) Predictions

Prediction of SNOs between AQUA and METOP-C Satellite Orbit:

Table of predicted SNOs for the next 14.0 days since TLE Epoch: 3/6/2020
Index Date (AQUA) Time (AQUA) Lat,Lon (AQUA) SZA (AQUA ) Date (METOP-C) Time (METOP-C) Lat,Lon (METOP-C) SZA (METOP-C ) Distance(km) Time Diff (sec)
1 03/08/2020 20:15:22 -73.73, 50.61 101.74 03/08/2020 20:14:27 -73.72, 50.69 101.74 3.07 55
2 03/08/2020 21:04:50 73.78,-141.86 78.31 03/08/2020 21:05:06 73.77,-141.87 78.29 2.10 16
3 03/08/2020 21:54:28 -74.40, 24.36 101.04 03/08/2020 21:55:35 -74.39, 27.01 101.16 79.28 67
4 03/11/2020 15:49:35 -73.70, 117.13 102.89 03/11/2020 15:48:51 -73.70, 117.06 102.87 2.38 44
5 03/11/2020 16:39:04 73.80, -75.45 77.22 03/11/2020 16:39:29 73.80, -75.38 77.21 2.36 25
6 03/14/2020 11:23:49 -73.72,-176.47 103.98 03/14/2020 11:23:14 -73.73,-176.46 103.96 1.24 35
7 03/14/2020 12:13:17 73.77, -8.95 76.07 03/14/2020 12:13:53 73.78, -9.01 76.08 2.28 36
8 03/17/2020 06:58:02 -73.76,-110.10 105.06 03/17/2020 06:57:36 -73.76,-109.99 105.05 3.60 26
9 03/17/2020 07:47:30 73.81, 57.43 74.99 03/17/2020 07:48:15 73.82, 57.47 74.99 1.68 45
10 03/20/2020 01:42:38 73.17, 149.94 73.21 03/20/2020 01:41:31 73.12, 147.62 73.26 75.12 67
11 03/20/2020 02:32:15 -73.75, -43.63 106.19 03/20/2020 02:32:00 -73.74, -43.63 106.19 0.65 15
12 03/20/2020 03:21:43 73.80, 123.90 73.86 03/20/2020 03:22:39 73.80, 123.83 73.85 2.06 56




NCC Satellite Simultaneous Nadir Overpasses (SNOs) Prediction Service
